< < Back
Terminal Aerodrome Forecast


Current Version              Previous Versions:   1  2  3  4  5  6  7  8  9  

Terminal Aerodrome Forecast

409
FTUS44 KMRX 050525
TAFCHA
TAF
KCHA 050525Z 0506/0606 00000KT P6SM SCT100 BKN150
     FM051500 VRB04KT P6SM SCT050 BKN250
     FM052000 31005KT P6SM VCTS SCT050CB OVC250
     FM060300 00000KT P6SM VCSH SCT050 BKN100=



Latest METAR

206
SAUS80 KWBC 050800 RRB
MTRCHA
METAR KCHA 050753Z AUTO 34003KT 10SM CLR 26/22 A3002 RMK AO2 SLP153
T02610217


USA.gov is the U.S. government's official web portal to all federal, state and local government web resources and services.